Probability
0 0 0 0 0 0 0 0 0 0 0 0 0 0 0 0 0 0 0 0 0 0 0 0 0 0 0 0 0 0 0 0 0 0 0 0 0 1
0 0 0 0 0 0 0 0 0 0 0 0 0 0 0 0 0 0 0 0 0 0 0 0 0 0 0 0 0 0 0 0 0 0 0 0 0 1
0 0 0 0 0 0 0 0 0 0 0 0 0 0 0 0 0 0 0 0 0 0 0 0 0 0 0 0 0 0 0 0 0 0 0 0 0 1
0 0 0 0 0 0 0 0 0 0 0 0 0 0 0 0 0 0 0 0 0 0 0 0 0 0 0 0 0 0 0 0 0 0 0 0 0 0
0 0 0 0 0 0 0 0 0 0 0 0 0 0 0 0 0 0 0 0 0 0 0 0 0 0 0 0 0 0 0 0 0 0 0 0 0 0
0 0 0 0 0 0 0 0 0 0 0 0 0 0 0 0 0 0 0 0 0 0 0 0 0 0 0 0 0 0 0 0 0 0 0 0 0 0
0 0 0 0 0 0 0 0 0 0 0 0 0 0 0 0 0 0 0 0 0 0 0 0 0 0 0 0 0 0 0 0 0 0 0 0 0 0
0 0 0 0 0 0 0 0 0 0 0 0 0 0 0 0 0 0 0 0 0 0 0 0 0 0 0 0 0 0 0 0 0 0 0 0 0 0
0 0 0 0 0 0 0 0 0 0 0 0 0 0 0 0 0 0 0 0 0 0 0 0 0 0 0 0 0 0 0 0 0 0 0 0 0 0
0 0 0 0 0 0 0 0 0 0 0 0 0 0 0 0 0 0 0 0 0 0 0 0 0 0 0 0 0 0 0 0 0 0 0 0 0 0
0 0 0 0 0 0 0 0 0 0 0 0 0 0 0 0 0 0 0 0 0 0 0 0 0 0 0 0 0 0 0 0 0 0 0 0 0 0
0 0 0 0 0 0 0 0 0 0 0 0 0 0 0 0 0 0 0 0 0 0 0 0 0 0 0 0 0 0 0 0 0 0 0 0 0 0
0 0 0 0 0 0 0 0 0 0 0 0 0 0 0 0 0 0 0 0 0 0 0 0 0 0 0 0 0 0 0 0 0 0 0 0 0 0
0 0 0 0 0 0 0 0 0 0 0 0 0 0 0 0 0 0 0 0 0 0 0 0 0 0 0 0 0 0 0 0 0 0 0 0 0 0
0 0 0 0 0 0 0 0 0 0 0 0 0 0 0 0 0 0 0 0 0 0 0 0 0 0 0 0 0 0 0 0 0 0 0 0 0 0
0 0 0 0 0 0 0 0 0 0 0 0 0 0 0 0 0 0 0 0 0 0 0 0 0 0 0 0 0 0 0 0 0 0 0 0 0 0
0 0 0 0 0 0 0 0 0 0 0 0 0 0 0 0 0 0 0 0 0 0 0 0 0 0 0 0 0 0 0 0 0 0 0 0 0 0
0 0 0 0 0 0 0 0 0 0 0 0 0 0 0 0 0 0 0 0 0 0 0 0 0 0 0 0 0 0 0 0 0 0 0 0 0 0
0 0 0 0 0 0 0 0 0 0 0 0 0 0 0 0 0 0 0 0 0 0 0 0 0 0 0 0 0 0 0 0 0 0 0 0 0 0
0 0 0 0 0 0 0 0 0 0 0 0 0 0 0 0 0 0 0 0 0 0 0 0 0 0 0 0 0 0 0 0 0 0 0 0 0 0
0 0 0 0 0 0 0 0 0 0 0 0 0 0 0 0 0 0 0 0 0 0 0 0 0 0 0 0 0 0 0 0 0 0 0 0 0 0
0 0 0 0 0 0 0 0 0 0 0 0 0 0 0 0 0 0 0 0 0 0 0 0 0 0 0 0 0 0 0 0 0 0 0 0 0 0
0 0 0 0 0 0 0 0 0 0 0 0 0 0 0 0 0 0 0 0 0 0 0 0 0 0 0 0 0 0 0 0 0 0 0 0 0 0
Wind_Speed
2 1 1 1 1 1 1 2 2 2 2 2 1 2 1 1 2 2 2 2 2 1 0 1 1 0 0 1 1 1 1 2 2 2 2 3 4 4
1 1 1 1 1 0 1 1 1 2 2 2 2 2 2 2 2 2 2 3 2 1 0 1 1 1 0 1 0 1 1 2 2 2 2 3 4 5
2 2 2 1 1 1 0 0 1 1 2 2 1 2 2 2 2 2 2 2 1 2 2 2 2 2 2 2 1 1 2 2 2 2 3 3 3 4
3 2 2 2 1 1 0 1 1 1 2 2 2 2 2 2 2 2 2 1 1 2 3 2 2 3 3 3 2 3 3 3 3 3 3 3 4 5
3 2 2 2 2 1 1 1 1 1 1 2 2 1 2 1 1 2 2 1 1 1 1 2 2 3 3 3 3 4 4 4 4 4 4 4 4 5
3 2 2 2 2 2 1 1 1 0 0 1 1 1 1 2 1 1 1 1 1 1 1 1 1 2 2 3 4 5 5 5 5 5 5 4 5 5
4 3 3 3 2 2 1 1 1 1 1 1 1 1 1 1 1 1 1 1 1 1 1 1 0 1 1 3 4 5 5 5 5 5 5 6 6 7
3 4 4 3 4 3 3 2 2 2 2 1 1 2 3 2 1 1 1 1 1 0 0 1 0 1 2 2 3 4 5 5 5 6 6 6 7 8
3 3 3 3 4 3 3 3 2 2 4 3 3 3 3 3 2 2 2 2 2 1 0 1 1 2 2 2 4 4 5 5 5 6 6 6 7 7
3 3 3 4 4 3 2 3 3 2 3 3 4 4 4 3 3 2 1 1 2 2 2 1 1 2 2 2 4 5 5 6 6 6 7 7 7 8
3 3 3 3 5 4 2 2 3 3 2 2 4 5 5 5 4 2 2 1 1 1 2 2 1 1 2 2 3 4 6 6 7 7 8 8 8 7
3 4 4 4 5 4 1 1 3 3 3 3 3 2 2 2 4 4 3 2 2 2 2 2 1 1 2 2 2 3 3 5 7 8 8 8 7 5
3 3 4 6 5 4 2 2 4 3 2 2 2 3 2 1 1 2 3 3 3 3 3 3 2 2 2 2 3 3 2 3 3 4 6 7 7 6
3 3 4 7 6 5 3 3 3 2 1 1 2 2 2 2 2 1 3 4 4 5 3 4 3 3 2 2 3 3 3 3 3 3 4 4 6 8
4 6 6 7 5 4 4 4 2 1 1 1 2 2 2 2 2 2 1 2 3 4 4 5 5 3 3 3 3 3 3 3 3 3 3 4 4 4
3 5 6 5 3 4 4 3 2 2 2 2 2 2 2 2 2 1 1 1 1 2 2 4 5 5 3 4 4 4 4 3 3 3 4 4 4 4
3 2 2 3 3 3 2 2 2 1 2 2 2 3 2 2 2 2 1 1 1 2 3 1 3 4 5 4 4 5 5 5 5 4 3 4 5 5
2 2 3 3 3 3 3 3 2 2 3 3 3 3 3 3 3 2 2 2 3 3 3 3 1 1 2 5 8 6 5 5 5 4 4 4 6 5
2 3 4 4 4 4 4 4 4 4 3 3 4 4 4 4 3 4 3 3 4 4 4 3 2 2 4 6 5 8 6 5 4 4 5 5 6 6
3 4 5 5 4 4 4 4 5 4 4 4 4 4 4 4 4 4 4 5 4 4 4 4 4 5 5 6 5 4 8 7 5 6 6 5 6 7
5 5 5 5 5 5 5 5 5 5 5 4 4 5 5 4 5 5 5 6 5 5 6 6 5 6 4 3 5 6 5 8 8 6 5 5 5 5
6 6 6 6 6 6 5 5 5 5 5 5 5 5 5 5 6 7 6 6 5 6 7 7 5 3 3 5 7 7 7 5 6 10 11 9 5 5
6 6 6 6 6 6 6 6 7 6 6 6 6 6 5 5 6 6 6 6 6 7 6 6 5 4 5 6 7 7 9 8 5 5 6 8 13 14
Wind_Direction
330 328 311 282 236 219 207 201 199 251 282 279 281 293 309 311 326 330 328 337 345 2 29 184 151 61 65 128 154 156 175 176 178 193 213 228 234 235
333 346 333 307 292 224 204 215 215 212 246 259 261 281 300 310 329 329 317 319 321 324 283 215 169 183 168 118 119 158 155 164 178 190 194 212 226 233
350 352 340 320 343 344 16 203 225 215 239 275 274 286 289 300 320 316 306 293 286 277 259 238 211 207 205 197 198 208 205 201 200 205 212 220 226 229
339 347 338 341 351 338 328 285 253 237 225 263 292 302 291 283 294 299 307 300 279 269 252 239 223 220 223 223 226 224 218 215 217 218 226 235 242 242
333 338 328 346 336 322 307 287 275 266 230 227 267 282 286 290 304 306 313 316 291 267 252 238 233 235 236 234 232 227 222 225 228 228 229 239 246 249
345 339 330 326 304 310 309 283 265 298 270 238 262 282 284 284 270 296 321 334 319 329 333 284 243 249 249 245 236 228 224 228 230 232 235 241 247 251
352 348 340 333 321 316 295 267 220 211 255 264 271 281 280 282 280 269 284 316 303 296 318 308 284 263 256 246 239 228 226 228 230 233 239 243 245 247
343 342 337 339 345 342 328 291 236 214 223 236 257 260 264 256 251 244 231 293 293 299 322 301 267 263 262 247 238 234 233 233 234 237 240 245 246 243
329 333 337 341 341 329 333 331 316 261 227 220 238 249 251 240 225 235 220 224 251 268 263 274 265 269 269 257 247 246 245 243 241 242 244 247 248 244
323 317 320 325 330 327 325 331 321 303 259 232 237 250 255 250 225 223 213 243 273 252 210 250 268 268 281 278 263 251 250 249 247 247 249 250 249 245
325 324 323 320 321 324 329 323 322 321 310 264 259 263 262 253 215 180 183 197 283 270 193 217 253 280 279 274 268 255 253 254 252 250 251 251 248 244
321 324 325 325 326 332 307 297 310 310 328 346 346 333 292 257 205 198 199 194 222 251 198 197 222 252 283 266 269 268 258 256 255 254 253 252 245 239
309 313 316 326 326 323 290 251 256 275 305 325 325 321 321 300 216 202 204 202 209 236 203 184 213 210 235 276 280 268 259 264 262 256 252 251 243 227
283 293 299 312 314 314 297 278 276 279 292 319 322 315 314 308 294 256 222 220 229 240 224 193 218 213 223 257 273 274 271 263 256 263 266 258 246 235
272 285 295 303 307 308 302 300 292 268 268 285 289 284 276 278 291 298 275 234 244 245 233 213 216 221 221 241 258 266 280 278 256 255 263 260 257 244
285 296 303 305 300 291 302 303 275 243 227 250 269 273 283 290 287 289 297 311 303 292 241 217 215 209 222 234 242 259 258 262 268 265 266 268 260 245
304 297 311 320 323 317 308 301 287 258 241 243 252 269 279 280 275 259 244 247 264 286 296 263 213 216 228 235 245 253 259 261 262 268 268 277 271 259
297 292 293 292 288 291 298 302 287 262 253 249 250 254 265 271 275 263 235 239 257 270 276 280 277 256 248 240 223 247 258 261 267 262 252 266 278 272
246 269 274 278 278 279 278 276 277 277 266 256 256 258 257 260 262 266 261 256 260 266 269 264 250 243 271 286 263 215 233 262 267 268 258 253 270 279
244 262 270 274 273 274 274 271 272 277 268 260 259 258 255 255 259 262 261 259 262 267 270 261 241 232 239 266 281 271 228 239 254 266 274 269 267 274
263 261 262 266 266 264 263 263 264 268 268 263 261 259 256 250 254 257 258 256 254 259 265 267 259 241 246 251 263 269 263 230 229 248 266 272 277 276
266 265 264 259 259 259 259 257 259 261 262 258 258 258 254 248 253 257 259 258 256 256 263 271 274 246 225 239 261 274 280 279 250 237 238 239 253 265
262 263 264 262 257 255 256 256 255 257 256 255 256 257 255 252 251 254 255 255 258 262 264 270 271 255 250 253 263 271 275 280 285 283 272 248 239 249